ZHONGXING-1E

Last updated on Thu Jul 03 2025 00:02:49 GMT+0000 (Coordinated Universal Time)

1 53813U 22112A 25183.63610781 -.00000142 00000+0 00000+0 0 9995 2 53813 0.0441 211.2238 0000293 76.3346 303.7551 1.00273254 10349
UTC large
Height (km)
Speed (km/s)
/
Latitude / Longitude
Inclination (degrees)
Orbital Period (minutes)
Azimuth
Elevation
Range (km)
Doppler Factor

Next 0 passes for location: London (51.5072 / 0.1276)

Sorry there are no passes over London.